TimeCST,TemperatureF,Dew PointF,Humidity,Sea Level PressureIn,VisibilityMPH,Wind Direction,Wind SpeedMPH,Gust SpeedMPH,PrecipitationIn,Events,Conditions,WindDirDegrees,DateUTC
12:52 AM,12.9,8.1,81,30.12,10.0,NNW,8.1,-,N/A,,Clear,340,2012-12-23 06:52:00
1:52 AM,12.0,7.0,80,30.10,10.0,North,8.1,-,N/A,,Clear,350,2012-12-23 07:52:00
2:52 AM,10.9,7.0,84,30.13,10.0,WNW,6.9,-,N/A,,Clear,300,2012-12-23 08:52:00
3:52 AM,10.9,7.0,84,30.12,10.0,NNW,8.1,-,N/A,,Clear,340,2012-12-23 09:52:00
4:52 AM,10.0,6.1,84,30.13,10.0,NNW,6.9,-,N/A,,Clear,330,2012-12-23 10:52:00
5:52 AM,10.0,5.0,80,30.14,10.0,NNW,11.5,-,N/A,,Clear,340,2012-12-23 11:52:00
6:52 AM,9.0,5.0,84,30.13,10.0,NNW,10.4,-,N/A,,Clear,340,2012-12-23 12:52:00
7:52 AM,9.0,5.0,84,30.14,10.0,North,4.6,-,N/A,,Clear,360,2012-12-23 13:52:00
8:52 AM,10.9,5.0,77,30.13,10.0,NE,3.5,-,N/A,,Clear,50,2012-12-23 14:52:00
9:52 AM,12.0,6.1,77,30.14,10.0,NNE,5.8,-,N/A,,Clear,20,2012-12-23 15:52:00
10:52 AM,15.1,7.0,70,30.14,10.0,Variable,3.5,-,N/A,,Partly Cloudy,0,2012-12-23 16:52:00
11:52 AM,17.1,9.0,71,30.12,10.0,Calm,Calm,-,N/A,,Clear,0,2012-12-23 17:52:00
12:52 PM,17.6,10.4,73,30.04,10.0,East,3.5,-,N/A,,Clear,90,2012-12-23 18:52:00
1:52 PM,19.0,12.9,77,30.08,10.0,Calm,Calm,-,N/A,,Clear,0,2012-12-23 19:52:00
2:52 PM,19.9,14.0,78,30.08,10.0,Calm,Calm,-,N/A,,Clear,0,2012-12-23 20:52:00
3:52 PM,19.9,14.0,78,30.07,10.0,East,5.8,-,N/A,,Clear,100,2012-12-23 21:52:00
4:52 PM,19.9,14.0,78,30.07,10.0,Calm,Calm,-,N/A,,Clear,0,2012-12-23 22:52:00
5:37 PM,19.4,14.0,80,30.02,10.0,NNW,6.9,-,N/A,,Mostly Cloudy,340,2012-12-23 23:37:00
5:52 PM,19.9,15.1,81,30.09,10.0,North,11.5,-,N/A,,Overcast,350,2012-12-23 23:52:00
6:52 PM,19.0,14.0,81,30.09,10.0,North,5.8,-,N/A,,Mostly Cloudy,10,2012-12-24 00:52:00
7:52 PM,18.0,14.0,84,30.08,9.0,ENE,3.5,-,N/A,,Overcast,60,2012-12-24 01:52:00
8:52 PM,16.0,12.9,88,30.10,9.0,WNW,4.6,-,N/A,,Overcast,290,2012-12-24 02:52:00
9:52 PM,16.0,12.9,88,30.10,10.0,NW,8.1,-,N/A,,Overcast,320,2012-12-24 03:52:00
10:24 PM,17.6,12.2,79,30.03,10.0,NNW,6.9,-,N/A,,Overcast,330,2012-12-24 04:24:00
10:52 PM,17.1,12.9,84,30.09,9.0,NW,9.2,-,N/A,,Overcast,320,2012-12-24 04:52:00
11:52 PM,16.0,10.9,81,30.09,10.0,NW,13.8,-,N/A,,Overcast,310,2012-12-24 05:52:00